Regional Weather Roundup
Issued by NWS

Home | Current Version | Previous Version | Graphics & Text | Print | Product List | Glossary On
Versions: 1 2 3 4 5 6 7 8 9 10 11 12 13 14 15 16 17 18 19 20 21 22 23 24 25 26 27 28 29 30 31 32 33 34 35 36 37 38 39 40 41 42 43 44 45 46 47 48 49 50
000
ASUS43 KFSD 012302
RWRSD

WEATHER ROUNDUP FOR SOUTH DAKOTA
NATIONAL WEATHER SERVICE SIOUX FALLS SD
600 PM CDT WED OCT 01 2014

NOTE: "FAIR" INDICATES FEW OR NO CLOUDS BELOW 12,000 FEET WITH NO
SIGNIFICANT WEATHER AND/OR OBSTRUCTIONS TO VISIBILITY.


SDZ001>005-009-010-012>017-020000-
NORTHWEST AND NORTH CENTRAL SOUTH DAKOTA

CITY           SKY/WX    TMP DP  RH WIND       PRES   REMARKS
BUFFALO          N/A     54  42  64 W13       29.82R
FAITH            N/A     56  45  66 NW17      29.86R
MOBRIDGE       CLOUDY    61  49  64 W13       29.80R
$$

SDZ012>016-024>037-041>051-057-063-072>074-020000-
SOUTHWEST AND SOUTH CENTRAL SOUTH DAKOTA

CITY           SKY/WX    TMP DP  RH WIND       PRES   REMARKS
RAPID CTY ARPT CLOUDY    53  43  68 N13       29.90R
PIERRE         MOSUNNY   63  47  55 NW20G29   29.80R
CUSTER         LGT RAIN  46  39  76 N7        29.93R
ELLSWORTH AFB  CLOUDY    54  42  63 NW16      29.89S
PHILIP         PTSUNNY   60  45  57 N14       29.86R
PINE RIDGE     CLOUDY    54  46  74 N10       29.90R
WINNER         MOCLDY    69  47  45 NW13      29.81R
$$

SDZ004>011-016>023-039-040-020000-
NORTHEAST SOUTH DAKOTA

CITY           SKY/WX    TMP DP  RH WIND       PRES   REMARKS
ABERDEEN       SUNNY     65  49  56 NW13      29.76R
WATERTOWN      MOSUNNY   67  51  56 NW10      29.75R
SISSETON         N/A     68  50  52 NW12      29.73R
$$

SDZ017-020-022-023-036>040-048>070-020000-
SOUTHEAST SOUTH DAKOTA

CITY           SKY/WX    TMP DP  RH WIND       PRES   REMARKS
SIOUX FALLS    PTSUNNY   72  53  51 NW9       29.74R
HURON          MOSUNNY   70  49  47 NW12      29.74R
CHAMBERLAIN    CLOUDY    69  48  48 NW13      29.78R
MITCHELL       MOSUNNY   73  48  41 NW8       29.75R
YANKTON        PTSUNNY   72  54  53 NW6       29.74R
$$

ABBREVIATIONS USED IN REMARKS
   TC - TEMPERATURE IN CELSIUS
  WCI - WIND CHILL INDEX
   HX - HEAT INDEX
  VSB - VISIBILITY



USA.gov is the U.S. government's official web portal to all federal, state and local government web resources and services.